CW4114 Weather Reports


time (UTC)temp
C
wind
direction
speed
KPH
gust
KPH
rain 1hr
cm
rain 24hr
cm
rain mn
cm
humidity
%
barometer
mb
20260503192324 7 89 9.7 16.1 0.00 0.03 0.03 84 1003.0
20260503191820 8 85 8.0 14.5 0.00 0.03 0.03 86 1003.1
20260503191320 7 44 6.4 17.7 0.00 0.03 0.03 85 1003.1
20260503190815 7 109 6.4 17.7 0.00 0.03 0.03 84 1003.1
20260503190317 7 96 9.7 14.5 0.00 0.03 0.03 83 1003.3
20260503185809 7 41 8.0 11.3 0.00 0.03 0.03 82 1003.3
20260503185320 8 103 9.7 16.1 0.00 0.03 0.03 80 1003.3
20260503184805 8 137 6.4 16.1 0.00 0.03 0.03 80 1003.3
20260503184759 8 93 8.0 14.5 0.00 0.03 0.03 80 1003.3
20260503183805 9 80 6.4 11.3 0.00 0.03 0.03 82 1003.3
20260503183528 9 106 8.0 11.3 0.00 0.03 0.03 81 1003.4
20260503183030 10 95 4.8 11.3 0.00 0.03 0.03 83 1003.5
20260503182306 10 141 6.4 11.3 0.00 0.03 0.03 84 1003.7
20260503181308 8 138 6.4 9.7 0.00 0.03 0.03 87 1003.9
20260503180804 8 188 4.8 9.7 0.00 0.03 0.03 87 1004.0
20260503180332 7 137 1.6 6.4 0.00 0.03 0.03 89 1004.2
20260503175804 7 147 3.2 6.4 0.00 0.03 0.03 87 1004.2
20260503175306 7 142 3.2 9.7 0.00 0.03 0.03 88 1004.4
20260503174919 6 147 4.8 9.7 0.00 0.03 0.03 89 1004.4
20260503174304 6 144 6.4 9.7 0.00 0.03 0.03 90 1004.4
20260503174030 6 135 3.2 8.0 0.00 0.03 0.03 91 1004.4
20260503173303 6 100 4.8 6.4 0.00 0.03 0.03 91 1004.5
20260503173036 5 89 3.2 6.4 0.00 0.03 0.03 91 1004.5
20260503172305 5 121 4.8 6.4 0.00 0.03 0.03 90 1004.6
20260503171805 5 99 1.6 4.8 0.00 0.03 0.03 90 1004.8
20260503171303 5 96 0.0 6.4 0.03 0.03 0.03 90 1004.8
20260503171025 5 128 3.2 6.4 0.03 0.03 0.03 90 1004.9
20260503170301 4 31 0.0 6.4 0.03 0.03 0.03 89 1005.0
20260503150741 5 161 1.6 8.0 0.00 0.00 0.00 80 1005.5
20260503150514 6 102 4.8 8.0 0.00 0.00 0.00 80 1005.4
20260503140214 6 188 1.6 6.4 0.00 0.00 0.00 71 1006.0
20260503131030 6 275 4.8 11.3 0.00 0.00 0.00 61 1006.6
20260503130528 6 243 6.4 14.5 0.00 0.00 0.00 61 1006.7
20260503110510 3 203 4.8 11.3 0.00 0.00 0.00 61 1007.1
20260503090511 1 231 8.0 11.3 0.00 0.00 0.00 64 1008.1
20260503081502 1 227 9.7 14.5 0.00 0.00 0.00 64 1008.8
20260503080959 1 228 8.0 14.5 0.00 0.00 0.00 64 1008.9
20260503080459 1 238 8.0 14.5 0.00 0.00 0.00 64 1009.0
20260503072458 1 188 6.4 9.7 0.00 0.00 0.00 68 1009.2
20260503071957 1 243 6.4 9.7 0.00 0.00 0.00 68 1009.2
20260503071722 1 244 6.4 8.0 0.00 0.00 0.00 69 1009.4
20260503070957 1 244 6.4 9.7 0.00 0.00 0.00 70 1009.4
20260503070457 1 237 6.4 9.7 0.00 0.00 0.00 70 1009.6
20260503054955 1 245 6.4 11.3 0.00 0.00 0.00 78 1010.4
20260503054455 1 228 6.4 11.3 0.00 0.00 0.00 79 1010.5
20260503053954 1 231 6.4 9.7 0.00 0.00 0.00 79 1010.5
20260503053454 1 212 6.4 9.7 0.00 0.00 0.00 79 1010.6
20260503052955 1 227 6.4 9.7 0.00 0.00 0.00 80 1010.6
20260503052457 1 217 3.2 8.0 0.00 0.00 0.00 80 1010.6
20260503051956 1 217 4.8 8.0 0.00 0.00 0.00 81 1010.8
20260503051454 1 210 4.8 8.0 0.00 0.00 0.00 81 1010.8
20260503050954 0 213 4.8 8.0 0.00 0.00 0.00 81 1010.8
20260503050453 0 216 4.8 6.4 0.00 0.00 0.00 81 1010.8
20260503045957 0 220 4.8 6.4 0.00 0.00 0.00 81 1010.9
20260503045720 0 223 3.2 6.4 0.00 0.00 0.00 81 1010.9
20260503044955 0 231 3.2 6.4 0.00 0.00 0.00 81 1011.0
20260503044453 0 219 3.2 6.4 0.00 0.00 0.00 80 1011.0
20260503043953 0 217 3.2 4.8 0.00 0.00 0.00 80 1011.1
20260503043454 0 234 3.2 4.8 0.00 0.00 0.00 79 1011.2
20260503042952 0 237 1.6 3.2 0.00 0.00 0.00 78 1011.2
20260503042453 0 226 1.6 3.2 0.00 0.00 0.00 78 1011.2
20260503041952 0 261 1.6 3.2 0.00 0.00 0.00 77 1011.2
20260503041452 1 261 1.6 3.2 0.00 0.00 0.00 77 1011.3
20260503040952 1 261 0.0 1.6 0.00 0.00 0.00 77 1011.4
20260503040452 1 262 0.0 1.6 0.00 0.00 0.00 77 1011.5
20260503040234 1 262 0.0 1.6 0.00 0.00 0.00 76 1011.5
20260503035452 1 262 0.0 0.0 0.00 0.00 0.00 76 1011.6
20260503034951 1 262 0.0 3.2 0.00 0.00 0.00 75 1011.5
20260503034454 1 262 0.0 3.2 0.00 0.00 0.00 74 1011.6
20260503033953 1 245 0.0 0.0 0.00 0.00 0.00 73 1011.6
20260503033451 2 245 0.0 0.0 0.00 0.00 0.00 72 1011.6
20260503032951 2 245 0.0 0.0 0.00 0.00 0.00 72 1011.7
20260503032452 2 245 0.0 0.0 0.00 0.00 0.00 72 1011.8
20260503031950 2 244 0.0 0.0 0.00 0.00 0.00 71 1011.7
20260503031450 2 264 0.0 0.0 0.00 0.00 0.00 71 1011.8
20260503030952 2 272 0.0 0.0 0.00 0.00 0.00 71 1011.8
20260503030450 2 272 0.0 1.6 0.00 0.00 0.00 70 1011.9
20260503025952 3 281 0.0 1.6 0.00 0.00 0.00 70 1011.9
20260503025451 3 316 0.0 1.6 0.00 0.00 0.00 69 1012.0
20260503025226 3 309 0.0 1.6 0.00 0.00 0.00 68 1012.0
20260503024717 3 302 0.0 1.6 0.00 0.00 0.00 67 1012.1
20260503023949 3 316 0.0 1.6 0.00 0.00 0.00 67 1012.1
20260503023451 3 326 1.6 1.6 0.00 0.00 0.00 67 1012.1
20260503023223 3 350 0.0 3.2 0.00 0.00 0.00 67 1012.1
20260503022449 3 230 0.0 3.2 0.00 0.00 0.00 67 1012.0
20260503021948 3 202 0.0 6.4 0.00 0.00 0.00 67 1012.1
20260503021448 3 149 1.6 6.4 0.00 0.00 0.00 68 1012.0
20260503021220 3 195 0.0 3.2 0.00 0.00 0.00 69 1012.0
20260503015949 3 158 1.6 6.4 0.00 0.00 0.00 70 1012.0
20260503015448 3 186 3.2 6.4 0.00 0.00 0.00 70 1012.0
20260503014948 3 158 3.2 4.8 0.00 0.00 0.00 71 1011.9
20260503014447 3 137 3.2 4.8 0.00 0.00 0.00 71 1011.9
20260503013948 3 172 0.0 3.2 0.00 0.00 0.00 71 1011.9
20260503013447 3 166 0.0 3.2 0.00 0.00 0.00 70 1011.9
20260503012951 3 165 0.0 6.4 0.00 0.00 0.00 70 1011.9
20260503012448 3 166 0.0 6.4 0.00 0.00 0.00 71 1011.9
20260503012214 4 213 1.6 3.2 0.00 0.00 0.00 69 1011.8
20260503011558 4 213 0.0 3.2 0.00 0.00 0.00 69 1011.8
20260503011037 4 213 0.0 3.2 0.00 0.00 0.00 68 1011.8
20260503010445 4 213 1.6 1.6 0.00 0.00 0.00 67 1011.8
20260503005947 4 31 0.0 0.0 0.00 0.00 0.00 66 1011.8
20260503005448 5 31 0.0 0.0 0.00 0.00 0.00 65 1011.7
20260503004946 5 31 0.0 0.0 0.00 0.00 0.00 64 1011.6
20260503004447 5 37 0.0 0.0 0.00 0.00 0.00 63 1011.7
20260503003946 5 37 0.0 0.0 0.00 0.00 0.00 62 1011.7
20260503003444 5 37 0.0 3.2 0.00 0.00 0.00 62 1011.6
20260503002942 5 30 0.0 3.2 0.00 0.00 0.00 61 1011.7
20260503002443 5 323 0.0 4.8 0.00 0.00 0.00 60 1011.6
20260503001940 5 25 1.6 4.8 0.00 0.00 0.00 59 1011.6
20260503001437 6 27 0.0 3.2 0.00 0.00 0.00 59 1011.7
20260503001205 6 8 1.6 4.8 0.00 0.00 0.00 59 1011.8
20260503000438 6 0 0.0 6.4 0.00 0.00 0.00 59 1011.7
20260502235938 6 24 1.6 8.0 0.00 0.00 0.00 58 1011.9
20260502235442 6 336 3.2 8.0 0.00 0.00 0.00 57 1011.9
20260502235205 6 2 4.8 11.3 0.00 0.00 0.00 59 1011.9
20260502234700 6 337 1.6 11.3 0.00 0.00 0.00 60 1011.9
20260502233935 6 338 3.2 9.7 0.00 0.00 0.00 60 1011.9
20260502233434 6 12 4.8 9.7 0.00 0.00 0.00 60 1011.8
20260502233204 6 348 3.2 9.7 0.00 0.00 0.00 61 1011.9
20260502232434 6 316 4.8 8.0 0.00 0.00 0.00 64 1011.8
20260502231934 6 7 4.8 6.4 0.00 0.00 0.00 61 1011.9
20260502231435 6 25 3.2 8.0 0.00 0.00 0.00 62 1011.9
20260502230933 6 350 1.6 11.3 0.00 0.00 0.00 61 1012.0
20260502230433 6 354 3.2 11.3 0.00 0.00 0.00 59 1011.9
20260502225933 6 1 3.2 9.7 0.00 0.00 0.00 59 1012.0
20260502225434 6 345 3.2 14.5 0.00 0.00 0.00 61 1012.0
20260502224932 6 351 3.2 14.5 0.00 0.00 0.00 62 1012.0
20260502224703 6 331 6.4 11.3 0.00 0.00 0.00 61 1012.1
20260502223432 7 345 4.8 11.3 0.00 0.00 0.00 59 1012.1
20260502222930 7 348 3.2 11.3 0.00 0.00 0.00 57 1012.1
20260502222429 7 354 4.8 9.7 0.00 0.00 0.00 54 1012.1
20260502221929 7 1 4.8 9.7 0.00 0.00 0.00 56 1012.2
20260502221429 7 41 3.2 9.7 0.00 0.00 0.00 52 1012.2
20260502221224 7 340 4.8 11.3 0.00 0.00 0.00 51 1012.2
20260502220547 7 18 4.8 11.3 0.00 0.00 0.00 50 1012.2
20260502215926 8 313 6.4 16.1 0.00 0.00 0.00 48 1012.2
20260502215427 8 289 4.8 16.1 0.00 0.00 0.00 50 1012.2
20260502214926 8 12 6.4 11.3 0.00 0.00 0.00 52 1012.2
20260502214427 8 0 3.2 9.7 0.00 0.00 0.00 54 1012.2
20260502213926 8 320 3.2 9.7 0.00 0.00 0.00 52 1012.2
20260502213426 8 324 3.2 11.3 0.00 0.00 0.00 51 1012.2
20260502212925 8 314 4.8 11.3 0.00 0.00 0.00 53 1012.3
20260502212424 7 347 6.4 11.3 0.00 0.00 0.00 54 1012.3
20260502211921 7 337 6.4 11.3 0.00 0.00 0.00 54 1012.2
20260502211423 8 259 4.8 14.5 0.00 0.00 0.00 51 1012.3
20260502210921 8 310 6.4 14.5 0.00 0.00 0.00 52 1012.4
20260502210648 7 292 4.8 16.1 0.00 0.00 0.00 55 1012.4
20260502205421 8 1 4.8 14.5 0.00 0.00 0.00 52 1012.5
20260502204920 8 334 6.4 14.5 0.00 0.00 0.00 52 1012.4
20260502204420 8 21 4.8 16.1 0.00 0.00 0.00 49 1012.5
20260502203920 8 0 8.0 16.1 0.00 0.00 0.00 50 1012.5
20260502203419 8 44 4.8 16.1 0.00 0.00 0.00 50 1012.6
20260502202916 8 1 4.8 16.1 0.00 0.00 0.00 49 1012.5
20260502202416 8 343 6.4 17.7 0.00 0.00 0.00 49 1012.6
20260502201914 8 316 6.4 17.7 0.00 0.00 0.00 48 1012.7
20260502201411 8 354 3.2 14.5 0.00 0.00 0.00 53 1012.7
20260502200908 8 307 6.4 16.1 0.00 0.00 0.00 55 1012.7
20260502200408 8 11 4.8 16.1 0.00 0.00 0.00 55 1012.7
20260502195909 8 34 6.4 14.5 0.00 0.00 0.00 54 1012.9
20260502195407 8 14 4.8 14.5 0.00 0.00 0.00 53 1012.9
20260502194908 8 350 8.0 14.5 0.00 0.00 0.00 50 1013.0
20260502194637 8 51 8.0 17.7 0.00 0.00 0.00 48 1013.1
20260502193909 8 358 8.0 17.7 0.00 0.00 0.00 48 1013.1
20260502193406 8 341 8.0 17.7 0.00 0.00 0.00 49 1013.1